Snowfall_Accumulation
0.0 0.0 0.0 0.0 0.0 0.0 0.0 0.0 0.0 0.0 0.0 0.0 0.0 0.0 0.0 0.0 0.0 0.0 0.0 0.0 0.0 0.0 0.0 0.0 0.0 0.0 0.0 0.0 0.0 0.0 0.0 0.0 0.0 1.7 1.3 0.9 0.0 0.0 0.0 0.0 0.0 0.0 0.0
0.0 0.0 0.0 0.0 0.0 0.0 0.0 0.0 0.0 0.0 0.0 0.0 0.0 0.0 0.0 0.0 0.0 0.0 0.0 0.0 0.0 0.0 0.0 0.0 0.0 0.0 0.0 0.0 0.0 0.6 0.0 0.1 1.5 1.1 0.3 0.2 0.1 0.0 0.0 0.0 0.0 0.1 0.2
0.0 0.0 0.0 0.0 0.0 0.0 0.0 0.0 0.0 0.0 0.0 0.0 0.0 0.0 0.0 0.0 0.0 0.0 0.0 0.0 0.0 0.0 0.0 0.0 0.0 0.0 0.0 0.1 1.1 0.4 0.2 1.4 0.7 1.1 0.3 0.0 0.0 0.0 0.0 0.0 0.0 0.0 0.0
0.0 0.0 0.0 0.0 0.0 0.0 0.0 0.0 0.0 0.0 0.0 0.0 0.0 0.0 0.0 0.0 0.0 0.0 0.0 0.0 0.0 0.0 0.0 0.0 0.0 0.0 0.3 0.8 1.4 0.8 0.6 0.4 0.3 0.8 0.4 1.0 0.5 0.1 0.6 0.2 0.0 0.0 0.0
0.0 0.0 0.0 0.0 0.0 0.0 0.0 0.0 0.0 0.0 0.0 0.0 0.0 0.0 0.0 0.0 0.0 0.0 0.0 0.0 0.7 0.2 1.1 2.6 1.9 1.0 0.7 0.3 0.6 0.9 0.3 0.3 1.4 3.0 2.8 1.6 0.9 0.3 0.1 0.0 0.1 0.0 0.0
0.0 0.0 0.0 0.0 0.0 0.0 0.0 0.0 0.0 0.0 0.0 0.0 0.0 0.0 0.0 0.0 0.0 0.0 0.0 0.1 1.2 0.7 1.6 1.6 1.0 1.7 1.3 0.1 0.1 0.2 0.5 2.0 3.5 4.4 3.5 1.6 0.0 0.1 0.1 0.2 1.2 1.9 1.9
0.0 0.0 0.0 0.0 0.0 0.0 0.0 0.0 0.0 0.0 0.0 0.0 0.4 0.0 0.0 0.0 0.0 0.0 1.5 3.2 3.1 2.4 2.8 2.5 1.7 0.8 0.6 0.4 0.0 0.4 1.0 2.5 2.6 0.9 0.5 0.3 0.5 0.1 2.0 3.7 2.6 2.9 1.6
0.0 0.0 0.0 0.0 0.0 0.0 0.0 2.1 3.3 1.0 3.2 3.8 6.6 6.0 8.2 6.4 2.4 2.4 3.7 2.3 1.3 1.1 0.7 0.7 0.0 0.1 0.1 0.3 0.7 2.7 1.7 0.5 0.0 0.1 0.2 0.4 1.1 1.5 2.0 2.1 1.0 1.0 0.5
0.0 0.0 0.0 0.0 0.0 0.0 3.9 4.8 3.3 3.1 6.7 6.1 5.3 4.2 2.2 2.4 0.9 0.4 0.7 0.6 0.9 0.1 0.1 0.0 0.2 0.1 0.1 0.7 2.4 1.9 0.2 0.0 0.0 0.0 0.7 0.6 0.1 0.0 0.1 1.9 2.9 2.9 2.0
0.0 1.3 0.2 0.0 0.0 2.8 3.2 3.0 7.1 6.0 5.4 3.3 3.4 1.4 0.7 0.8 0.5 0.3 0.0 0.0 0.0 0.0 0.0 0.2 0.0 0.2 0.5 3.1 1.4 0.3 0.6 0.1 0.8 0.7 0.0 0.0 0.0 0.0 0.0 0.2 3.8 9.1 4.4
0.0 2.4 2.3 2.4 2.4 4.2 6.5 5.6 4.8 3.4 2.4 1.8 1.1 0.4 0.2 0.1 0.0 0.0 0.0 0.1 0.1 0.8 0.7 0.1 0.0 0.3 2.6 0.9 0.3 0.1 0.3 0.1 0.2 0.1 0.0 0.0 0.0 0.0 0.2 0.5 1.8 9.0 11.8
3.4 5.7 5.7 4.9 4.1 3.4 2.3 1.3 0.7 0.1 0.0 0.1 0.0 0.0 0.0 0.0 0.0 0.0 0.1 0.1 0.5 0.7 0.4 0.2 0.6 2.1 0.0 0.1 0.0 0.2 0.3 0.5 0.0 0.2 0.2 0.2 0.2 0.3 0.1 0.3 0.8 2.0 3.8
1.5 0.9 1.2 0.3 0.0 0.0 0.0 0.0 0.0 0.0 0.0 0.0 0.0 0.0 0.0 0.0 0.0 0.0 0.0 0.7 0.7 0.5 0.4 1.2 1.2 0.0 0.0 0.0 0.0 0.0 0.0 0.1 0.5 1.5 1.0 0.4 0.2 0.7 1.1 3.9 4.3 4.5 5.2
0.0 0.0 0.0 0.0 0.0 0.0 0.0 0.0 0.0 0.0 0.0 0.0 0.0 0.0 0.0 0.0 0.0 0.0 0.2 0.4 0.2 0.4 1.7 1.0 0.1 0.0 0.0 0.0 0.0 0.0 0.0 0.2 1.7 3.2 3.4 2.1 2.4 4.1 4.1 5.1 8.8 8.5 11.1
0.0 0.0 0.0 0.0 0.0 0.0 0.0 0.0 0.0 0.0 0.0 0.0 0.0 0.1 0.0 0.0 0.0 0.4 0.6 0.3 1.0 1.6 0.6 0.0 0.0 0.0 0.0 0.0 0.0 0.0 0.0 0.0 1.1 1.6 3.2 3.4 4.3 5.3 6.3 7.9 11.0 13.0 13.1
0.0 0.0 0.0 0.0 0.0 0.0 0.0 0.0 0.0 0.0 0.0 0.0 0.0 0.1 0.0 0.2 0.2 0.4 0.1 1.3 1.4 0.0 0.0 0.0 0.0 0.1 0.0 0.2 0.1 1.7 2.2 2.1 2.5 5.2 5.6 5.6 7.1 8.0 9.1 10.7 12.5 13.2 11.9
0.0 0.0 0.0 0.0 0.0 0.0 0.0 0.1 0.1 0.1 0.0 0.0 0.0 0.0 0.1 0.2 0.1 0.0 0.9 1.4 0.1 0.0 0.0 0.3 1.9 2.0 2.0 3.1 0.7 3.6 5.2 4.4 6.0 7.8 7.9 7.7 8.8 9.9 10.7 11.4 10.7 10.8 9.0
0.0 0.0 0.0 0.0 0.0 0.0 0.0 0.0 0.1 0.1 0.0 0.0 0.0 0.0 0.1 0.1 0.1 0.5 0.8 0.0 0.0 0.0 0.2 2.2 3.2 3.7 4.3 5.1 5.7 6.4 6.2 5.6 7.0 6.9 8.6 8.9 9.7 12.5 12.4 11.5 9.8 9.2 8.5
0.0 0.0 0.0 0.0 0.0 0.0 0.0 0.0 0.1 0.1 0.0 0.0 0.0 0.0 0.0 0.0 0.2 0.6 0.1 0.0 0.0 1.6 1.9 2.0 2.7 3.0 4.0 4.5 4.7 5.2 6.0 8.1 10.1 11.1 9.5 9.8 10.2 13.9 12.1 8.7 8.0 5.5 5.1
0.0 0.0 0.0 0.0 0.0 0.1 0.1 0.2 0.2 0.3 0.3 0.1 0.1 0.0 0.2 0.2 1.3 0.0 0.0 0.0 0.3 0.5 0.3 1.6 1.6 1.2 3.4 4.1 5.4 5.5 6.8 7.2 8.1 8.4 8.7 9.5 10.9 12.0 11.0 7.7 5.2 5.8 4.1
0.0 0.0 0.1 0.0 0.1 0.4 0.5 0.6 0.6 0.7 0.8 0.6 0.5 1.1 0.9 1.5 0.5 0.6 0.6 1.1 1.0 1.1 1.1 1.4 1.7 2.5 3.1 3.6 5.0 6.7 8.2 8.4 8.9 11.2 10.8 10.1 10.5 9.4 4.9 4.7 4.6 4.7 5.4
0.0 0.0 0.0 0.0 0.3 0.5 0.3 0.9 0.9 1.0 0.6 0.7 0.8 1.3 1.9 1.2 0.9 1.3 1.5 1.0 1.5 1.9 1.8 1.9 2.5 2.9 5.0 8.1 9.9 10.3 8.9 9.0 9.7 11.9 11.0 9.1 7.8 5.6 5.0 4.9 4.5 5.0 5.1
0.0 0.0 0.0 0.1 0.2 0.7 1.4 0.9 0.8 0.8 0.9 0.7 0.7 0.7 0.9 1.1 1.0 0.9 1.0 0.9 1.2 1.2 1.8 2.0 2.4 2.7 2.3 5.2 9.3 14.1 14.8 11.4 11.8 12.8 11.7 9.4 7.8 7.5 8.0 7.6 5.9 5.9 5.0
0.0 0.0 0.0 0.0 0.0 0.1 0.5 0.2 0.7 1.4 1.5 1.2 0.9 0.4 0.3 0.3 0.4 0.3 0.4 0.5 0.7 0.5 0.4 1.0 2.3 3.2 3.5 4.9 7.6 9.8 12.7 13.5 14.0 13.2 15.0 14.7 9.4 6.8 6.4 6.5 4.8 4.9 5.0
0.0 0.0 0.0 0.0 0.0 0.1 0.1 0.5 0.7 0.6 0.9 1.0 1.2 1.2 0.9 0.9 0.7 0.2 0.2 0.3 0.4 0.4 0.3 0.4 1.6 3.1 4.0 5.9 7.7 8.4 9.5 9.1 11.0 9.8 7.6 6.8 7.3 5.7 5.7 5.8 4.0 4.0 4.1
0.3 0.2 0.1 0.5 0.5 0.7 0.9 1.0 1.0 0.8 1.4 1.1 1.4 1.4 1.3 1.3 1.1 0.7 0.6 0.6 0.6 0.3 0.1 0.3 1.2 2.5 3.7 5.7 6.7 8.4 8.6 8.3 6.8 4.5 4.6 5.3 4.6 3.9 4.0 4.7 3.4 3.8 3.4